• MPC Preparation (Info)

  • MPEC 2014-S91 : 2014 SB224

    The following Minor Planet Electronic Circular may be linked-to from your own Web pages, but must not otherwise be redistributed electronically.

    A form allowing access to any MPEC is at the bottom of this page.


    Read MPEC 2014-S90 Read MPEC 2014-S92


    M.P.E.C. 2014-S91                                Issued 2014 Sept. 25, 16:23 UT
    
         The Minor Planet Electronic Circulars contain information on unusual
             minor planets and routine data on comets.  They are published
       on behalf of Commission 20 of the International Astronomical Union by the
              Minor Planet Center, Smithsonian Astrophysical Observatory,
                              Cambridge, MA 02138, U.S.A.
    
                 Prepared using the Tamkin Foundation Computer Network
    
                                  MPC@CFA.HARVARD.EDU
                URL https://www.minorplanetcenter.net/    ISSN 1523-6714
    
                                      2014 SB224
    
    Observations:
         K14SM4B* C2014 09 24.36508 03 15 04.91 +23 53 13.6          18.7 VqES091703
         K14SM4B  C2014 09 24.37810 03 14 26.82 +23 49 45.5          18.7 VqES091703
         K14SM4B  C2014 09 24.38461 03 14 07.91 +23 48 00.9          19.1 VqES091703
         K14SM4B  C2014 09 24.49360 03 09 08.05 +23 19 22.7          18.7 VqES091703
         K14SM4B  C2014 09 24.49393 03 09 07.21 +23 19 17.1          19.2 VqES091703
         K14SM4B  C2014 09 24.49425 03 09 06.30 +23 19 12.1          19.1 VqES091703
         K14SM4B  C2014 09 24.51288 03 08 18.68 +23 14 23.1          18.7 VqES091703
         K14SM4B  C2014 09 24.51320 03 08 17.80 +23 14 18.0          18.8 VqES091703
         K14SM4B  C2014 09 24.51353 03 08 17.07 +23 14 13.3          18.5 VqES091703
         K14SM4B  C2014 09 24.51386 03 08 16.25 +23 14 07.7          18.1 VqES091703
         K14SM4B KC2014 09 24.91084 02 55 57.50 +21 46 37.3          19.4 VtES091L04
         K14SM4B KC2014 09 24.91725 02 55 46.35 +21 45 30.4          19.3 VtES091L04
         K14SM4B KC2014 09 24.93768 02 55 10.75 +21 41 58.3          19.3 VtES091L04
         K14SM4B KC2014 09 24.94409 02 54 59.69 +21 40 51.9          19.2 VtES091L04
         K14SM4B KC2014 09 25.01619402 53 07.06 +21 28 29.4          19.5 VqES091I93
         K14SM4B KC2014 09 25.02930002 52 45.60 +21 26 20.2          19.8 VqES091I93
         K14SM4B KC2014 09 25.02996 02 52 45.05 +21 26 18.9          19.5 VqES091958
         K14SM4B KC2014 09 25.03958602 52 28.86 +21 24 39.9          19.2 VqES091I93
         K14SM4B KC2014 09 25.03978 02 52 29.03 +21 24 42.9          19.7 VqES091958
         K14SM4B KC2014 09 25.04669 02 52 17.75 +21 23 35.7          19.5 VqES091958
         K14SM4B KC2014 09 25.09974 02 50 52.87 +21 13 59.7                qES091J95
         K14SM4B KC2014 09 25.10268 02 50 48.35 +21 13 30.9                qES091J95
         K14SM4B KC2014 09 25.10594 02 50 43.35 +21 12 59.6          19.4 RqES091J95
         K14SM4B KC2014 09 25.22757802 48 16.54 +20 54 52.3          19.8 VuES091H21
         K14SM4B KC2014 09 25.23115002 48 11.51 +20 54 22.3          19.8 VuES091H21
         K14SM4B KC2014 09 25.23471902 48 06.51 +20 53 52.0          19.7 VuES091H21
         K14SM4B KC2014 09 25.23781402 48 02.18 +20 53 25.9          19.7 VuES091H21
         K14SM4B  C2014 09 25.39174 02 44 43.30 +20 32 48.7          19.3 VqES091G96
         K14SM4B  C2014 09 25.40090 02 44 31.37 +20 31 34.5          19.3 VqES091G96
         K14SM4B  C2014 09 25.40548 02 44 25.48 +20 30 57.6          19.1 VqES091G96
    
    Observer details:
    703 Catalina Sky Survey.  Observer A. R. Gibbs.  Measurers E. J. Christensen,
        A. R. Gibbs, A. D. Grauer, R. E. Hill, J. A. Johnson, R. A. Kowalski,
        S. M. Larson, F. C. Shelly.  0.68-m Schmidt + CCD.
    958 Observatoire de Dax.  Observers P. Dupouy, J. B. de Vanssay.  Measurer
        P. Dupouy.  0.43-m f/2.7 reflector + CCD.
    G96 Mt. Lemmon Survey.  Observer A. R. Gibbs.  Measurers E. J. Christensen,
        A. R. Gibbs, A. D. Grauer, R. E. Hill, J. A. Johnson, R. A. Kowalski,
        S. M. Larson, F. C. Shelly.  1.5-m reflector + CCD.
    H21 Astronomical Research Observatory, Westfield.  Observer R. Holmes.
        Measurers R. Holmes, T. Linder, L. Buzzi, S. Foglia, T. Vorobjov.  0.61-m
        f/4.5 astrograph + CCD.
    I93 St Pardon de Conques.  Observer F. Losse.  0.40-m f/3.7 reflector + CCD.
    J95 Great Shefford.  Observer P. Birtwhistle.  0.40-m f/6.0 Schmidt-Cassegrain
        + CCD.
    L04 ROASTERR-1 Observatory, Cluj-Napoca.  Observer L. Hudin.  0.3-m f/5.0
        reflector + CCD.
    
    Orbital elements:
    2014 SB224                                               Earth MOID = 0.0010 AU
    Epoch 2014 Dec. 9.0 TT = JDT 2457000.5                  MPC
    M  29.56522              (2000.0)            P               Q
    n   0.27352271     Peri.  323.30937     +0.74175575     +0.67066934
    a   2.3503928      Node   354.57154     -0.61272736     +0.67705010
    e   0.6150670      Incl.    0.62002     -0.27269687     +0.30299472
    P   3.60           H   26.3           G   0.15           U   5
    Residuals in seconds of arc
    140924 703  0.1-  0.1+    140924 L04  0.9-  0.1-    140925 J95  0.3-  0.1+
    140924 703  0.4+  0.2+    140924 L04  0.1+  0.2-    140925 J95  0.1+  0.1-
    140924 703  0.4+  0.5-    140924 L04  0.2-  0.0     140925 J95  0.5+  0.2+
    140924 703  0.0   0.3+    140924 L04  0.3+  0.0     140925 H21  0.0   0.0
    140924 703  0.2+  0.2-    140925 I93  0.3-  0.2-    140925 H21  0.2-  0.2+
    140924 703  0.9-  0.2-    140925 I93  0.2+  0.3-    140925 H21  0.0   0.0
    140924 703  0.3+  0.2+    140925 958  0.7+  0.7-    140925 H21  0.1+  0.0
    140924 703  0.7-  0.0     140925 I93  0.8+  0.6+    140925 G96  0.5-  0.1+
    140924 703  0.7+  0.5+    140925 958  0.8+  0.3-    140925 G96  0.2-  0.1-
    140924 703  0.9+  0.0     140925 958  0.1+  0.3+    140925 G96  0.6+  0.0
    
    Ephemeris:
    2014 SB224               a,e,i = 2.35, 0.62, 1                   q = 0.9047
    Date    TT    R. A. (2000) Decl.     Delta      r     Elong.  Phase     V
    2014 08 26    13 34 32.0 -11 33 21   0.1988  0.9070    53.6   116.2    27.1
    ...
    2014 09 10    13 38 40.9 -11 40 41   0.08945 0.9404    40.1   136.4    27.3
    ...
    2014 09 18    13 20 43.1 -08 48 55   0.03266 0.9760    27.1   152.0    27.6
    ...
    2014 09 24    03 35 00.6 +25 52 39   0.01129 1.0095   122.8    56.7    18.6
    2014 09 25    02 53 18.8 +21 34 58   0.01784 1.0156   134.2    45.1    19.3
    2014 09 26    02 35 06.1 +19 24 16   0.02467 1.0218   140.0    39.2    19.9
    ...
    2014 10 02    02 05 53.9 +15 34 09   0.06685 1.0614   153.7    24.7    21.7
    ...
    2014 10 10    01 56 33.7 +14 17 33   0.1251  1.1196   164.1    14.1    22.8
    ...
    2014 10 25    01 48 51.8 +13 12 31   0.2458  1.2402   177.7     1.8    23.9
    
    A. U. Tomatic                (C) Copyright 2014 MPC           M.P.E.C. 2014-S91
    

    Read MPEC 2014-S90 Read MPEC 2014-S92


    MPEC number:

    Enter an MPEC number in one of the following forms:

    • 1997-B01 (the full form)
    • J97B01 (the packed version of the full form)
    • B01 (the abbreviated form)